GEFSSGP_500_meanwind_012.txt.gz
Wind_Speed
6 5 3 2 1 4 5 6 7 8 6 2 3 5 5 4 3 3 3 4 6 7 7 7 9 9 10 11 11 11 10 10 9 10 11 9 6 4 2 1 4 6 7 8 10 11 11 11 11
5 4 3 2 2 5 7 7 7 8 6 3 3 5 6 4 3 3 3 4 6 7 8 8 10 11 12 12 11 10 10 10 11 11 10 8 5 4 2 3 6 8 10 10 11 12 13 12 12
3 2 3 3 5 6 7 8 7 6 6 6 5 4 6 6 3 3 3 3 5 8 9 10 12 13 13 13 13 11 10 10 11 11 9 7 6 5 5 6 8 11 12 12 12 13 13 14 13
2 3 4 5 5 6 8 9 7 5 5 6 7 6 6 6 4 3 1 3 6 8 10 10 12 13 13 14 13 12 11 10 10 10 7 6 6 5 4 6 9 12 14 14 14 14 14 14 14
4 6 8 6 6 10 12 13 12 9 6 6 7 8 7 5 4 3 3 4 7 9 10 10 11 12 14 14 14 14 13 11 10 9 7 6 5 4 3 3 6 11 14 15 15 15 15 14 14
5 7 7 5 9 12 14 15 15 15 11 8 7 8 8 7 5 5 5 6 8 10 11 11 12 13 14 15 15 15 15 14 12 10 8 6 5 5 4 4 5 9 12 14 15 16 16 15 15
6 8 9 11 12 12 14 15 15 17 15 12 9 9 10 8 7 6 6 7 8 11 14 14 15 15 16 16 17 17 17 16 14 11 9 8 8 7 7 5 5 7 10 13 15 16 16 15 15
10 10 11 11 12 13 14 16 17 16 15 14 11 10 11 10 7 7 7 8 10 13 16 17 18 18 18 18 19 19 19 18 15 12 10 9 10 9 8 7 6 7 9 11 14 16 17 16 16
14 14 12 10 12 14 15 17 18 18 17 15 12 10 10 9 7 6 6 9 12 15 18 20 21 21 20 20 21 21 21 20 17 14 11 11 10 9 7 6 6 6 7 9 11 14 16 17 17
18 17 14 12 13 15 16 18 20 19 17 15 12 9 7 4 3 5 7 9 12 16 19 21 23 23 22 22 22 21 21 20 18 16 13 11 10 7 5 5 6 6 6 7 9 11 14 16 17
21 20 17 14 16 16 18 20 21 20 17 14 10 7 3 1 3 7 10 13 15 17 19 21 22 22 22 21 21 21 21 21 19 16 13 10 8 6 4 5 6 6 6 6 7 10 12 15 16
23 23 19 16 18 17 19 20 21 19 16 12 8 6 3 4 6 10 13 16 19 21 21 21 22 22 21 21 21 21 21 21 19 16 13 9 7 6 5 5 6 7 7 7 7 9 11 12 14
25 24 20 20 20 18 20 21 19 17 15 11 9 6 4 5 7 11 14 17 20 23 24 22 21 23 22 20 19 20 20 20 18 15 13 8 6 6 6 7 7 8 7 7 7 7 9 10 11
26 24 23 23 23 19 19 20 18 15 14 13 12 10 9 9 11 14 16 19 23 25 26 24 22 24 25 21 18 17 18 18 16 15 12 9 7 7 8 8 9 9 8 7 7 7 7 7 8
28 28 26 25 24 21 18 21 19 14 13 13 14 14 13 13 15 18 20 23 25 25 25 23 24 26 25 23 18 15 14 15 14 13 11 9 8 8 9 9 10 10 9 8 8 7 7 6 6
29 27 25 25 25 23 20 20 20 17 15 13 13 14 15 15 18 20 22 25 25 25 24 20 22 24 24 24 21 14 13 13 12 11 9 8 9 10 10 11 11 12 11 10 10 10 9 8 6
30 27 25 25 26 25 23 21 17 18 17 14 14 14 14 15 19 21 24 26 26 25 23 21 21 22 22 21 19 15 13 12 12 11 10 10 10 12 13 13 13 15 14 12 12 12 9 9 7
30 28 26 26 26 24 23 21 17 18 18 16 15 15 16 17 18 20 24 26 26 25 23 21 19 19 18 17 17 14 13 12 12 13 12 12 13 14 16 15 15 16 16 15 14 12 10 10 8
30 27 25 23 23 23 22 21 19 20 19 17 15 16 18 19 18 21 24 25 26 25 22 19 17 16 16 16 16 15 14 13 13 14 14 15 16 17 19 18 17 17 17 17 16 14 12 11 10
27 25 23 21 21 22 21 19 19 21 19 16 14 16 18 20 20 21 23 24 25 23 21 19 18 17 17 16 15 16 16 15 15 15 16 17 17 19 22 21 20 19 18 18 18 17 15 12 9
26 23 21 20 21 23 23 19 20 20 18 14 13 14 16 19 20 21 22 23 23 22 21 20 20 19 19 18 18 17 17 17 17 17 17 18 19 21 24 24 23 22 20 19 20 19 18 15 12
23 23 22 21 22 22 23 20 19 21 18 13 12 12 14 17 20 22 22 23 22 21 20 21 21 22 21 20 19 17 18 18 18 17 17 18 21 23 25 26 26 25 24 21 21 21 20 18 15
23 22 23 22 23 22 22 22 18 20 17 15 13 13 15 18 21 23 24 24 22 21 21 22 23 23 23 22 20 19 18 18 17 16 17 19 22 25 27 27 26 26 26 23 22 23 22 20 18
23 23 22 22 22 21 21 23 19 20 18 17 14 16 19 20 21 22 24 24 23 22 23 23 24 24 23 23 22 21 20 19 17 16 16 18 22 25 27 29 27 26 26 25 24 24 23 21 20
21 21 21 21 22 20 21 23 20 20 20 18 17 18 21 22 23 23 22 23 23 23 23 23 22 21 21 21 21 21 21 20 18 16 15 17 21 25 27 28 28 26 25 25 24 24 24 22 21
22 21 21 21 22 22 22 22 20 21 21 21 20 20 22 24 26 26 25 24 23 21 21 19 19 19 19 19 19 20 20 19 18 18 18 18 20 24 27 27 29 29 26 25 25 25 25 25 24
22 22 22 24 25 26 25 24 23 23 23 23 22 22 24 25 26 26 25 25 21 17 16 15 15 16 17 17 18 18 18 18 18 18 18 19 21 24 26 27 27 29 29 27 27 26 26 25 26
21 21 22 25 26 27 25 23 24 25 25 24 22 23 24 23 23 23 23 22 18 15 13 14 15 16 16 16 17 17 17 17 18 18 18 19 21 24 26 28 28 28 27 27 26 26 25 25 26
21 21 23 25 26 26 25 23 23 25 26 25 23 24 25 23 22 21 20 19 17 15 14 14 15 16 16 16 17 17 17 18 18 18 19 19 21 24 26 28 29 28 27 26 26 25 24 24 24
24 23 24 24 25 26 27 25 20 24 26 25 24 25 26 25 22 21 20 18 16 15 15 15 16 17 17 17 18 18 19 19 18 18 19 21 22 25 27 27 27 27 26 26 26 24 24 23 23

GEFSSGP_500_meanwind_018.txt.gz
Wind_Speed
2 1 1 3 6 8 10 10 8 8 7 6 6 6 7 8 8 8 6 5 4 5 7 9 11 11 12 12 12 11 9 8 8 8 9 9 7 7 7 6 4 3 6 8 9 12 13 13 13
2 0 1 2 6 10 11 11 9 8 7 6 6 7 7 8 8 7 6 5 3 3 6 8 10 11 11 12 13 12 10 9 8 8 8 8 7 7 7 7 5 3 3 5 6 6 6 8 9
2 2 3 3 6 10 11 11 9 7 7 7 7 8 8 8 8 7 6 4 3 3 4 7 9 10 11 13 14 14 12 10 9 9 8 7 7 7 8 8 7 6 5 4 4 6 6 7 8
1 2 4 5 7 10 11 11 9 7 7 8 8 9 9 9 8 6 5 4 3 4 5 6 8 10 11 13 14 15 14 12 10 9 8 8 8 8 8 8 8 8 9 8 7 7 8 9 9
0 2 4 6 8 10 12 11 11 12 11 10 9 9 10 9 8 6 5 4 3 4 6 7 8 10 11 13 15 16 16 14 12 11 10 9 8 8 7 7 8 9 10 11 10 10 11 10 9
2 3 5 7 9 11 12 12 12 12 12 12 11 10 10 9 8 7 6 5 4 4 7 9 10 11 12 13 14 16 17 16 14 12 10 10 9 8 8 9 9 9 11 12 13 14 13 12 11
5 4 5 7 9 11 12 13 14 13 12 12 12 11 10 9 8 7 7 6 4 4 7 10 11 13 14 14 14 15 16 16 14 13 11 9 8 8 9 10 10 10 11 12 14 15 15 14 13
8 7 7 8 10 12 13 14 15 15 14 14 13 12 10 9 8 7 6 6 4 5 8 11 13 14 15 14 14 15 15 15 14 13 12 10 8 8 8 10 11 11 11 12 14 15 16 15 14
12 10 9 10 12 14 15 15 16 17 17 15 14 12 10 8 7 5 5 5 5 7 10 13 15 16 16 15 14 14 14 14 14 13 12 10 9 8 8 8 10 11 11 12 13 14 16 16 15
15 13 12 13 14 16 16 16 16 18 18 16 13 11 9 6 3 2 3 5 7 10 12 14 16 17 17 16 15 14 14 14 14 13 11 11 10 9 7 7 8 9 11 11 12 12 13 15 16
17 16 15 16 16 18 18 16 17 17 18 16 12 9 7 5 4 4 6 8 10 11 13 15 16 17 18 18 16 15 15 15 14 12 11 10 10 9 7 6 7 9 10 11 10 10 11 12 13
19 19 18 18 18 18 18 18 18 18 18 15 12 9 7 7 7 8 9 11 12 13 15 16 18 18 18 18 17 16 16 16 14 12 10 9 9 9 8 7 7 9 10 10 10 9 9 10 11
22 21 20 21 21 20 20 19 19 19 18 15 12 10 9 10 11 11 12 13 14 15 17 18 19 19 18 18 18 17 17 16 13 11 10 8 9 10 9 9 9 10 10 10 10 9 8 8 8
24 24 23 24 24 23 22 20 20 20 18 17 14 12 12 14 14 14 13 13 14 16 18 20 21 21 20 20 19 18 17 15 13 10 9 9 9 10 10 10 10 10 10 10 10 9 7 6 6
27 26 26 27 27 26 25 23 22 20 19 18 16 14 15 16 17 15 14 14 15 17 18 19 21 22 22 21 20 18 17 14 12 10 8 8 9 10 11 11 10 10 10 11 10 9 7 5 4
30 30 30 30 29 28 26 23 23 21 20 19 17 16 17 18 18 17 16 16 16 17 18 19 21 22 22 21 19 17 15 12 11 10 8 8 9 11 12 11 11 10 11 11 11 10 8 6 4
34 34 33 33 32 30 27 23 22 23 21 20 19 18 19 19 19 19 18 17 16 17 18 19 21 22 21 19 18 16 15 13 12 10 8 9 10 12 13 13 12 12 12 12 12 11 9 6 5
35 36 36 35 33 30 28 24 21 22 21 21 20 19 20 21 20 20 20 18 18 18 18 19 21 21 20 18 17 15 15 12 11 9 9 10 11 13 14 14 14 15 14 14 14 13 11 8 6
36 36 35 34 33 31 28 25 21 21 21 21 20 20 22 23 22 21 21 20 19 19 18 19 20 20 20 19 18 16 15 13 12 11 10 11 12 14 15 16 17 17 17 16 16 16 14 11 9
34 33 33 33 31 30 27 24 22 22 22 22 21 22 23 24 22 21 21 21 20 20 19 20 20 20 20 20 19 18 18 16 14 13 13 13 14 16 18 19 20 20 19 18 18 19 17 14 12
34 32 30 29 29 28 26 23 21 23 23 23 23 23 24 24 23 23 23 21 21 21 21 21 21 21 21 20 19 19 20 19 17 17 17 16 16 18 20 21 23 23 23 21 21 21 20 17 14
32 31 30 29 28 27 26 24 19 23 24 23 22 24 25 25 25 25 24 22 22 22 22 22 22 22 22 21 20 21 21 21 21 20 19 18 19 20 21 23 25 26 26 25 23 23 23 21 18
32 31 30 29 30 28 26 26 21 23 25 24 23 24 25 26 27 27 26 24 23 23 23 22 22 22 23 23 23 22 22 22 22 22 21 21 20 21 22 25 26 28 29 28 26 25 25 24 23
29 30 31 31 30 27 24 26 25 24 25 24 24 25 26 27 27 28 27 25 24 24 23 22 22 22 23 24 24 24 24 23 22 23 23 23 22 21 22 26 28 30 31 31 29 28 27 27 26
25 26 27 27 26 25 25 25 26 26 25 26 27 26 27 27 27 27 27 26 25 24 23 23 23 23 23 23 24 23 22 21 21 21 22 23 23 23 23 25 29 31 32 33 31 31 30 29 28
23 24 25 25 24 23 23 24 25 25 25 26 27 27 27 26 26 26 25 25 25 26 25 24 23 23 22 21 20 20 19 19 19 19 20 21 22 23 23 24 26 30 33 33 32 32 32 32 31
26 26 25 26 26 25 25 25 26 26 26 27 28 28 27 26 25 25 24 25 26 26 26 24 23 22 19 18 17 17 17 17 17 18 19 20 21 22 23 23 24 27 30 32 33 33 34 34 33
28 28 28 29 30 30 29 28 28 27 27 28 29 29 28 27 25 24 24 24 26 26 25 24 22 21 19 17 15 15 15 16 17 18 18 19 20 20 21 21 22 25 27 30 32 32 33 34 34
29 29 29 31 32 33 32 29 28 26 25 26 27 27 26 25 23 23 23 24 25 26 25 23 21 20 18 16 15 14 14 15 16 17 18 18 19 20 20 21 22 24 27 28 30 30 32 32 32
29 29 29 31 32 32 31 29 25 24 23 24 26 27 25 24 23 23 24 25 26 26 25 23 22 21 19 18 16 16 15 16 17 18 19 20 20 20 21 21 21 23 26 28 29 29 30 32 32

GEFSSGP_500_meanwind_024.txt.gz
Wind_Speed
4 4 5 6 7 8 8 8 7 5 3 1 3 5 6 6 7 6 5 3 2 1 2 5 6 7 8 9 9 9 9 8 8 8 8 8 7 6 6 7 7 6 4 5 12 17 20 21 19
6 6 5 6 6 7 7 8 7 6 5 2 2 3 5 6 6 5 4 4 4 2 1 3 6 7 9 10 10 10 10 8 8 9 9 8 7 6 6 6 5 4 3 1 7 12 15 18 19
7 7 7 6 6 6 7 7 7 7 6 4 3 3 4 5 5 5 5 5 5 4 2 3 5 7 9 10 10 10 10 9 9 10 10 9 7 6 6 5 4 3 2 2 4 7 9 12 16
8 8 7 7 6 6 7 8 8 9 8 7 5 4 5 5 5 5 5 5 5 4 3 4 6 7 9 10 10 10 10 10 9 10 10 9 8 7 5 5 5 5 4 3 3 5 7 9 11
8 8 8 7 6 6 7 8 10 11 10 10 8 6 6 5 5 5 5 5 5 4 2 4 6 8 9 10 11 11 11 10 10 10 10 9 8 7 6 6 6 6 7 6 6 6 7 8 9
8 8 6 4 3 4 6 8 9 10 10 10 9 8 7 6 5 5 5 5 5 3 2 5 8 10 11 12 12 12 12 11 11 11 10 9 8 7 7 8 8 8 8 8 9 9 9 9 9
8 7 4 1 1 3 6 8 9 10 11 11 10 9 8 6 5 5 5 4 4 3 2 5 8 11 12 13 12 13 13 12 12 12 10 9 8 7 8 9 10 10 9 9 10 11 11 10 10
7 6 4 3 3 4 6 8 9 10 11 12 11 11 9 7 5 4 4 4 4 3 3 5 8 11 12 13 12 13 13 13 13 13 11 9 8 8 9 10 11 11 10 10 11 12 12 12 12
9 7 6 6 6 6 7 9 10 10 10 11 12 11 10 7 5 2 2 3 3 3 4 6 8 10 12 13 13 13 13 13 14 14 12 11 9 9 9 10 11 11 11 11 11 11 12 13 13
11 9 9 8 8 9 9 10 10 10 10 11 12 12 9 7 4 2 2 3 3 4 6 7 9 10 12 13 13 13 12 13 14 14 13 11 10 9 10 11 11 11 11 11 11 11 12 13 14
13 12 11 11 11 11 11 11 12 12 11 11 12 12 10 7 5 4 4 5 6 7 8 9 10 11 11 13 13 13 13 13 14 14 13 11 10 9 11 11 11 11 11 11 11 11 11 12 13
16 15 14 13 13 13 13 13 13 13 13 12 12 13 12 10 8 8 8 9 9 10 11 11 11 11 11 13 13 13 13 13 14 14 13 11 9 9 11 11 11 11 11 11 11 11 11 11 12
19 17 17 16 16 16 15 15 15 16 15 14 14 14 13 12 11 11 11 12 12 13 13 13 13 12 12 13 13 13 14 14 14 14 13 11 10 9 11 11 11 11 11 11 11 11 11 11 12
21 21 20 20 19 19 18 17 18 18 17 17 16 15 15 14 14 13 13 14 15 15 15 15 15 14 13 13 13 13 13 13 14 13 12 11 10 10 11 12 12 12 11 12 12 11 11 11 11
24 24 24 24 23 22 22 20 20 21 19 18 18 17 18 17 16 16 16 16 16 17 17 17 17 16 15 14 14 14 13 13 13 13 13 12 11 11 12 13 13 13 12 12 12 12 11 11 11
28 28 27 27 27 26 25 22 24 23 22 21 20 19 19 20 19 18 18 18 18 18 18 18 18 18 17 15 14 14 13 13 13 14 14 13 12 12 13 14 15 15 14 13 13 12 11 11 11
31 31 30 31 30 29 28 26 26 26 24 23 22 21 21 21 21 20 20 20 20 20 20 20 19 20 18 17 17 15 15 14 14 14 14 13 13 13 14 15 16 16 16 15 14 13 12 12 11
35 34 33 34 33 32 31 29 28 28 27 25 24 23 22 22 23 22 21 21 21 21 21 21 21 21 20 19 18 17 17 16 15 14 14 14 13 14 15 16 18 18 17 17 16 15 14 13 12
39 37 36 36 35 34 31 29 28 28 28 27 26 24 23 23 23 22 22 22 22 22 22 22 23 23 22 21 20 19 18 18 17 16 16 16 15 15 16 17 18 20 20 19 18 17 16 15 13
40 39 38 37 36 35 32 29 28 28 27 27 26 25 24 23 23 23 23 22 22 22 23 23 24 24 24 23 22 21 20 20 20 19 18 18 16 16 16 18 20 21 22 22 21 20 19 18 16
39 39 38 37 35 34 32 29 27 27 26 25 25 25 24 23 23 24 24 23 23 23 24 24 24 25 25 25 23 23 22 23 22 22 21 21 20 19 19 19 21 23 24 24 24 23 22 21 19
37 37 36 35 33 32 31 30 26 25 25 25 25 24 24 23 23 24 25 24 24 24 25 25 25 26 26 26 25 24 24 25 25 25 25 24 23 23 22 22 21 22 24 25 26 26 25 24 22
34 34 34 34 33 32 31 31 27 25 24 25 25 24 23 23 24 25 25 25 25 26 26 26 26 26 26 26 26 26 26 27 27 27 27 27 27 26 24 24 24 24 24 25 27 28 27 27 26
29 29 29 30 30 30 29 28 26 25 25 25 24 24 24 23 23 24 25 26 26 27 26 26 26 26 26 26 26 27 28 28 28 29 28 28 29 28 26 25 26 26 25 25 27 29 29 29 29
27 27 27 27 27 27 25 24 23 23 22 22 22 23 23 23 23 24 25 26 27 27 26 25 25 25 25 26 26 27 27 28 28 29 29 29 29 29 27 27 26 27 26 26 27 29 31 30 32
27 26 27 25 24 24 23 21 20 20 19 19 18 19 20 21 23 23 24 26 26 26 26 25 24 24 24 24 25 24 25 25 25 25 26 27 27 27 27 26 26 26 27 27 27 28 31 30 33
26 26 26 26 24 23 22 21 19 16 16 16 16 17 19 21 22 23 24 25 26 26 26 24 24 24 23 24 23 23 22 22 22 22 22 23 24 25 25 25 25 25 25 25 25 26 30 33 33
26 26 25 25 24 24 24 23 21 18 17 16 16 17 19 21 22 23 23 24 25 24 24 23 23 23 23 23 23 23 22 21 20 20 20 20 21 22 22 23 23 24 24 25 26 26 29 32 34
26 26 26 27 27 25 25 24 22 20 17 16 16 17 19 20 21 21 21 22 22 22 23 23 23 23 23 24 24 23 22 21 20 19 18 18 18 19 20 21 22 22 23 23 24 25 26 28 32
28 27 27 27 26 25 25 24 23 21 19 19 20 20 20 21 21 21 21 21 22 22 23 23 23 24 24 24 24 23 22 22 20 19 19 18 18 19 19 20 20 21 22 22 21 23 24 25 29

GEFSSGP_500_meanwind_030.txt.gz
Wind_Speed
7 5 5 5 3 3 7 7 6 5 4 5 7 10 11 9 10 10 10 9 7 6 5 6 9 11 13 14 15 15 14 13 11 9 9 9 9 9 9 8 7 6 6 5 9 16 20 22 22
7 6 5 3 3 6 7 7 8 7 6 6 7 9 10 9 10 10 10 9 7 6 5 6 8 11 13 14 15 15 14 13 12 10 9 10 9 9 9 8 7 6 5 3 3 11 19 22 23
8 7 6 3 5 5 6 7 8 9 7 7 7 8 9 9 9 10 9 8 7 6 5 6 8 10 12 13 14 15 15 14 12 11 10 10 10 9 8 8 7 6 5 4 2 5 14 19 22
9 8 6 6 7 5 5 6 7 7 7 7 8 8 8 9 9 9 8 8 7 6 5 5 7 9 11 12 14 15 15 14 13 12 11 11 10 9 8 7 6 6 5 3 3 2 8 14 19
10 9 7 7 6 4 4 6 6 7 8 8 8 8 8 8 7 7 7 6 6 5 4 4 6 8 10 12 13 14 15 14 13 13 12 11 10 9 7 6 6 5 4 3 1 2 4 9 15
10 9 7 5 3 2 3 5 7 7 8 9 9 8 8 7 6 6 5 5 5 5 5 4 6 8 10 11 13 13 14 14 13 13 13 12 11 9 7 6 6 6 5 3 2 2 4 7 11
10 9 8 5 2 1 3 6 8 9 10 10 11 10 8 7 5 4 4 5 5 6 6 5 6 8 9 11 12 13 14 13 13 14 14 13 11 10 8 6 6 6 5 4 4 5 6 7 10
11 10 8 5 4 3 3 5 8 9 10 11 11 10 9 8 6 3 3 4 5 6 6 6 7 8 9 10 12 13 13 14 14 14 14 14 12 11 9 7 6 6 6 6 6 7 8 9 10
13 11 8 6 8 6 6 7 7 9 10 10 10 11 10 8 6 4 2 3 5 5 6 6 7 8 9 10 11 12 13 14 15 15 15 14 13 11 10 8 7 7 7 7 7 8 9 11 12
15 13 11 11 11 9 8 8 9 10 11 11 10 9 9 8 7 5 4 4 5 6 7 8 9 9 10 10 11 12 12 13 15 16 15 15 14 13 11 9 8 8 7 7 8 9 10 12 13
18 16 14 12 13 12 12 11 11 12 13 13 13 11 9 8 8 7 7 7 7 8 9 9 10 10 11 11 12 12 13 13 14 16 16 15 15 14 12 10 9 8 8 8 8 9 11 12 13
20 19 18 16 16 15 15 14 13 13 14 15 16 15 12 11 10 9 9 10 10 11 11 12 12 12 12 12 13 13 13 14 15 16 17 16 16 15 13 11 10 9 9 8 8 9 10 12 13
21 21 20 19 18 17 18 17 17 16 16 17 18 18 17 15 14 12 11 11 12 12 12 13 13 13 13 13 14 14 14 14 14 16 17 17 17 16 15 12 11 10 9 8 8 9 10 11 12
23 24 23 22 21 21 21 20 20 19 20 19 19 20 20 19 17 17 15 14 13 13 12 13 14 13 13 14 14 14 14 14 14 15 17 17 18 18 17 14 12 11 10 10 9 9 10 11 12
26 25 25 25 25 25 25 23 22 24 23 22 21 22 22 21 20 20 20 18 16 15 13 13 14 15 15 15 15 15 15 15 15 15 16 17 18 18 18 16 13 12 12 11 10 10 11 11 12
29 29 28 28 29 29 29 27 25 27 27 25 24 25 26 24 23 23 23 21 19 18 16 14 15 16 16 16 16 17 16 15 16 16 17 17 18 18 18 17 15 13 13 12 12 12 12 12 12
32 32 32 31 32 33 34 31 28 30 30 29 27 27 28 28 26 25 24 23 22 20 19 17 16 16 17 17 17 18 17 17 16 17 18 18 18 18 19 18 17 15 14 14 14 13 13 13 13
35 36 35 34 34 35 37 35 31 31 32 32 30 29 29 29 29 28 26 23 23 21 20 19 18 17 17 17 18 19 19 19 17 17 18 19 19 20 20 20 19 16 16 16 16 15 15 15 14
39 39 38 38 40 40 40 37 35 34 35 34 32 30 30 30 29 30 28 25 24 22 21 20 20 19 18 18 19 19 20 19 19 18 19 20 21 21 22 22 21 18 17 17 17 17 17 17 16
41 42 42 43 44 44 44 42 40 37 37 37 36 33 31 31 32 33 29 27 26 23 21 21 21 20 20 19 19 19 20 19 19 20 20 21 22 22 23 24 22 21 19 18 19 19 20 19 18
40 43 44 44 44 45 45 44 41 39 39 37 36 34 32 31 33 33 30 29 27 24 22 21 21 21 21 20 20 20 20 20 20 20 21 21 22 23 24 25 24 23 22 21 20 21 22 22 21
38 39 41 42 43 43 42 44 40 38 36 34 33 33 32 32 33 32 30 28 27 24 22 22 22 22 21 20 20 20 20 20 21 21 22 23 24 25 26 27 27 25 25 24 23 22 23 23 23
36 38 39 39 39 39 37 39 35 34 33 31 30 30 32 32 31 31 29 27 25 23 23 22 21 21 20 20 20 20 20 21 21 22 23 24 25 26 26 27 28 27 26 25 24 24 23 23 23
32 34 35 36 36 36 33 34 31 29 28 28 28 28 29 29 29 30 28 26 24 23 22 21 20 20 20 20 20 21 21 21 22 23 24 25 26 26 26 27 28 28 27 26 25 24 23 24 23
28 28 29 29 28 27 26 26 24 24 26 25 25 26 26 26 26 27 26 25 24 22 22 22 21 21 21 20 20 21 22 22 23 24 24 25 25 26 26 27 28 29 27 26 26 24 24 24 24
26 25 24 25 23 21 20 17 16 18 20 20 21 21 21 22 23 23 23 22 21 20 20 20 20 20 21 21 21 21 22 22 23 24 24 24 24 24 24 26 27 27 26 26 25 24 24 24 23
26 24 23 24 25 24 21 18 16 15 14 15 16 19 20 20 21 21 21 20 19 19 19 20 20 20 20 20 21 22 22 22 23 23 23 23 23 22 22 23 24 25 25 24 24 23 23 23 22
29 25 22 22 23 22 18 17 17 16 12 12 14 16 17 17 18 20 20 20 20 20 20 20 19 19 19 20 21 22 22 23 23 23 23 22 22 21 21 21 21 22 23 23 23 23 22 21 21
27 25 24 25 26 23 20 21 21 19 17 15 14 13 15 18 18 19 20 19 17 18 19 20 20 20 20 21 21 22 22 23 23 23 22 22 21 20 20 19 19 20 20 21 21 21 21 21 20
27 25 23 25 24 24 22 21 23 20 17 15 14 14 16 17 16 17 19 17 17 18 20 20 20 20 21 22 22 22 22 22 21 21 21 21 20 20 19 19 19 19 19 19 20 20 20 21 20

GEFSSGP_500_meanwind_036.txt.gz
Wind_Speed
7 6 5 3 2 2 1 1 3 3 4 4 4 5 7 7 7 7 8 6 4 3 3 6 8 11 12 13 13 13 13 12 10 9 8 8 7 6 4 4 3 4 5 8 12 15 17 20 20
7 6 4 3 1 2 1 2 4 6 7 6 5 5 6 7 6 7 7 6 4 2 2 4 7 9 11 12 12 12 12 12 11 11 10 9 8 7 5 4 3 3 4 6 8 13 17 19 21
7 5 5 3 3 2 2 4 6 9 9 8 8 6 6 7 5 6 6 5 3 2 2 3 5 8 9 11 11 12 12 12 12 12 11 10 9 8 6 4 3 3 3 3 5 8 13 18 20
7 6 5 4 3 3 4 5 8 9 9 9 9 9 7 6 4 4 5 3 2 1 1 2 4 7 8 10 11 12 12 12 13 13 13 12 10 8 6 5 4 3 2 2 2 4 9 15 19
8 8 7 6 5 2 3 4 6 7 8 9 10 10 9 7 5 4 3 2 1 1 1 1 3 5 7 9 10 11 12 12 13 13 13 13 11 9 7 6 5 3 2 2 1 3 5 11 16
10 9 8 7 5 1 2 3 5 6 8 8 9 11 10 9 6 4 3 1 1 1 1 1 2 4 6 8 9 10 11 12 13 13 13 13 12 10 8 6 6 4 3 2 2 3 4 8 13
12 10 8 7 5 2 1 3 5 7 8 9 10 11 10 9 7 5 3 1 1 2 3 3 3 4 6 7 8 9 10 11 12 13 13 13 12 11 9 7 6 5 4 3 3 4 5 6 9
14 12 9 8 6 4 1 3 4 6 8 9 10 10 9 9 8 6 4 2 2 3 4 4 4 4 5 7 8 8 9 10 11 12 12 12 11 11 10 8 7 6 5 5 5 5 6 7 8
15 13 11 10 8 5 3 4 6 6 7 8 9 9 9 9 8 7 5 4 4 4 5 6 6 6 6 7 8 8 9 9 10 11 12 11 10 10 10 9 7 6 6 6 7 7 8 8 9
16 15 13 10 9 7 5 6 8 7 7 7 8 8 9 9 8 7 6 7 7 7 7 8 8 9 9 9 9 9 8 9 9 10 11 10 10 10 10 9 8 7 7 7 7 8 8 10 10
17 16 16 15 12 10 9 9 11 12 10 9 9 9 10 9 9 8 8 8 9 10 11 11 11 11 11 11 11 10 9 9 9 9 10 10 10 9 9 9 8 8 7 7 8 8 8 10 12
19 18 18 17 15 14 14 14 14 15 16 14 13 12 12 11 10 11 11 10 11 12 13 14 14 14 14 14 13 12 11 10 9 9 10 10 10 10 10 9 9 8 7 8 8 8 9 11 13
20 20 20 20 20 18 18 18 17 18 19 19 18 17 16 14 13 13 13 13 13 14 14 14 15 16 16 15 15 14 13 12 10 10 10 10 10 10 9 9 9 9 8 8 8 9 10 11 12
22 22 22 22 23 23 22 21 21 21 23 23 22 21 20 19 17 16 16 15 15 16 16 16 15 16 16 16 15 15 15 13 12 11 10 10 10 10 9 9 10 9 8 8 8 9 10 11 12
25 24 24 25 27 27 27 24 24 25 26 26 26 25 24 23 22 20 19 18 17 17 17 16 16 16 17 17 17 16 16 15 14 12 11 11 10 11 10 10 11 10 10 9 9 10 10 11 13
28 28 28 29 31 31 31 27 27 29 29 29 29 28 27 27 26 24 23 21 19 18 18 18 17 17 17 17 17 17 17 16 15 14 13 12 11 11 10 10 11 11 11 10 10 11 12 12 13
31 32 32 33 34 34 35 32 31 32 31 31 31 30 29 29 29 27 26 25 22 20 19 18 18 18 18 18 18 17 17 17 16 15 15 14 13 13 12 11 12 12 12 11 11 12 13 13 13
34 35 36 37 37 37 38 36 34 34 33 32 32 32 31 30 30 30 29 27 25 23 21 19 19 19 19 20 20 19 18 18 17 17 16 15 15 15 15 14 14 14 14 13 12 12 13 14 15
36 37 38 39 40 41 40 40 38 37 37 35 34 33 33 32 31 31 31 30 27 25 24 22 22 21 21 21 21 20 19 18 19 19 18 17 17 17 16 16 16 16 16 15 14 14 14 14 16
36 38 39 40 41 43 43 41 39 39 39 38 38 37 36 35 32 32 32 31 29 27 26 25 25 24 23 23 23 22 20 19 19 19 19 19 18 18 18 17 17 17 18 17 17 17 16 15 16
35 38 39 40 40 41 43 41 38 38 40 40 39 38 36 35 34 33 33 32 31 29 27 27 28 28 26 25 24 23 22 20 19 19 19 19 18 19 19 19 20 19 19 20 20 19 18 17 18
34 35 37 38 39 39 40 41 35 36 36 36 35 34 33 32 33 32 31 32 31 30 30 30 31 30 28 26 24 23 22 21 20 19 19 20 20 20 20 21 22 21 21 22 23 22 20 19 19
32 32 33 34 35 35 34 37 32 33 33 32 31 31 29 28 28 28 29 31 32 32 30 31 31 32 30 27 24 22 22 21 21 20 20 21 21 21 21 23 24 23 23 24 24 22 21 21 22
32 32 33 32 31 30 28 29 28 28 28 29 29 28 27 25 24 25 28 30 31 31 30 30 30 29 28 26 24 22 21 21 21 21 21 22 22 23 23 24 25 25 25 26 25 25 25 24 23
33 33 33 32 29 26 24 24 24 25 25 25 25 25 24 24 24 23 24 26 28 29 29 28 28 28 27 24 23 22 21 21 22 22 23 23 24 24 24 25 26 26 26 27 27 27 26 25 25
34 34 33 32 29 25 22 22 22 23 22 22 22 22 22 22 23 22 23 24 25 27 27 25 25 25 23 22 21 21 21 21 22 22 23 24 24 25 26 26 26 26 26 27 27 27 27 26 26
37 34 33 32 29 26 22 21 22 21 20 20 21 21 23 22 22 22 23 24 24 26 25 23 21 20 19 19 18 19 20 21 23 23 23 24 24 25 26 26 26 25 25 25 26 26 26 26 25
37 34 31 29 27 25 23 22 22 21 20 20 21 22 22 22 22 22 22 22 23 22 20 19 18 17 16 17 18 19 21 22 23 23 24 24 24 25 25 25 24 24 24 24 24 25 25 25 24
30 30 28 26 25 23 22 20 20 19 18 20 20 20 20 21 22 22 23 23 21 17 17 16 16 16 16 17 18 19 21 22 23 23 23 23 23 23 23 23 23 22 22 22 22 23 23 23 23
19 20 21 21 21 21 19 18 17 16 14 15 17 17 17 17 17 18 18 15 14 12 13 14 14 15 16 16 18 20 21 21 22 22 21 21 21 21 21 21 21 21 20 20 20 20 21 21 21

GEFSSGP_500_meanwind_042.txt.gz
Wind_Speed
3 1 1 2 3 4 4 5 5 6 7 8 8 8 7 8 8 6 5 4 3 3 5 7 9 11 12 14 15 15 15 14 14 13 12 10 8 6 4 3 2 3 4 6 8 10 12 13 15
3 1 0 1 3 4 4 4 5 7 8 9 9 9 9 9 8 7 5 3 3 3 4 5 7 9 11 12 14 14 14 14 14 13 12 11 9 7 5 4 3 3 3 5 7 9 11 13 14
3 2 1 1 3 4 4 4 6 7 9 9 10 10 10 10 9 7 5 3 2 3 3 4 6 8 10 11 12 13 14 14 13 13 12 12 10 9 7 5 4 3 3 4 5 7 9 12 14
4 3 2 0 2 2 2 4 6 8 9 10 10 11 11 12 10 8 6 3 2 2 2 3 5 7 8 10 12 12 13 13 13 13 12 12 11 10 8 6 5 4 3 2 2 4 6 10 13
6 4 3 1 1 1 1 3 5 8 10 11 11 12 12 12 11 10 7 5 3 2 2 2 4 6 7 9 10 12 12 13 13 13 12 12 11 11 10 8 6 4 4 3 2 2 3 7 10
7 5 4 1 0 0 1 3 5 8 10 11 11 12 12 12 12 10 9 6 4 2 2 2 3 5 6 8 9 10 11 12 12 12 12 12 11 11 11 9 7 5 3 3 2 1 1 4 7
9 6 5 2 1 0 1 3 5 7 9 10 11 12 12 12 11 11 9 7 5 3 2 2 3 4 6 8 9 9 10 11 11 12 12 11 11 11 11 10 8 6 4 3 2 1 0 3 6
10 7 5 2 1 1 1 2 4 6 7 9 10 11 11 11 11 10 9 8 6 5 4 4 4 5 6 8 9 10 10 10 11 11 11 11 11 10 10 10 8 7 5 3 1 1 2 3 5
11 9 6 4 3 3 2 3 3 4 6 7 9 10 11 11 11 10 9 8 7 6 6 6 6 7 7 9 9 10 10 10 10 10 10 11 10 10 10 10 8 7 5 3 2 2 4 5 6
12 10 9 7 5 5 4 5 5 5 6 7 8 9 11 11 11 11 10 9 9 8 8 8 8 9 10 10 11 11 11 11 10 10 10 10 10 9 9 9 8 7 6 4 2 3 5 6 7
13 13 12 12 10 9 9 8 8 8 8 8 9 10 11 12 12 12 12 12 11 10 10 10 11 11 12 12 12 12 12 12 11 10 10 10 9 9 8 8 8 7 6 4 3 4 5 7 8
15 15 14 14 14 14 13 12 12 12 12 12 12 12 12 13 13 14 14 14 13 13 13 13 13 14 14 13 13 13 12 12 12 11 10 10 9 8 8 7 7 7 6 5 5 5 5 6 8
17 17 17 18 18 18 17 16 16 16 16 16 15 15 15 15 15 15 15 15 15 15 15 15 15 15 15 15 14 14 13 13 13 12 11 10 10 9 8 7 7 7 7 6 6 6 6 7 8
19 19 20 21 22 22 22 21 21 21 21 20 19 19 18 18 17 17 17 17 16 16 16 16 17 17 16 16 16 15 14 14 14 13 12 11 10 10 9 8 7 7 7 7 6 7 7 7 8
21 22 23 24 26 26 26 24 26 26 26 25 24 23 22 21 20 19 19 18 18 18 18 17 17 18 18 17 17 16 16 15 15 14 13 13 12 11 11 10 9 8 8 7 7 7 8 8 9
25 26 27 28 29 30 30 28 29 30 30 29 28 27 26 24 23 21 21 20 20 20 19 18 17 18 19 18 18 18 17 16 16 15 15 14 13 13 12 11 11 11 10 9 9 9 9 10 10
29 30 30 32 34 34 35 33 33 35 35 34 33 32 30 29 26 25 24 22 21 21 20 19 19 19 19 19 19 19 18 17 17 16 16 16 15 14 14 14 14 14 13 12 11 11 11 11 12
32 33 34 35 37 38 38 38 37 39 39 38 38 37 35 33 30 29 27 25 24 22 21 21 21 20 20 21 21 20 20 19 18 18 18 17 17 17 17 17 16 16 16 15 14 13 12 13 13
35 36 37 38 40 41 41 40 40 42 42 41 41 40 39 37 35 33 31 28 27 25 23 23 23 23 23 23 23 22 22 21 20 19 19 20 20 20 20 20 19 18 18 17 16 16 15 14 15
36 38 39 40 41 42 42 41 42 43 43 43 42 41 40 39 37 36 34 32 31 29 26 25 25 25 25 26 26 25 24 24 23 22 22 21 21 21 21 21 20 20 20 19 19 19 18 18 18
37 39 40 42 43 44 44 43 42 43 43 43 42 41 39 39 38 37 36 35 33 31 29 28 28 28 28 29 30 27 26 26 25 24 23 22 22 22 22 22 21 21 22 22 22 21 22 22 21
37 38 40 41 42 42 41 42 39 39 38 39 39 39 38 37 37 36 36 36 35 34 32 32 31 31 32 32 33 31 29 28 26 25 24 23 23 23 22 23 23 23 23 23 24 24 24 23 23
40 40 41 41 41 41 39 40 37 34 32 33 33 33 34 34 35 35 34 35 35 35 35 34 35 35 35 35 34 32 31 28 25 24 24 24 23 23 22 23 24 24 24 24 24 25 26 26 26
43 43 43 42 40 40 36 35 35 32 30 29 29 30 30 30 31 31 32 33 34 35 36 36 37 37 36 37 36 32 30 27 24 23 23 23 23 23 23 23 24 24 24 25 25 26 27 27 27
43 43 43 41 38 36 32 31 31 29 27 26 26 26 27 28 28 29 30 31 32 33 35 36 38 38 37 36 33 31 29 27 24 24 24 24 24 24 23 23 24 24 24 25 25 26 26 27 28
38 38 36 35 32 29 26 25 24 24 23 23 24 24 25 26 26 28 29 30 31 32 33 34 35 35 34 33 31 29 27 25 23 23 23 23 24 23 23 23 23 24 24 25 26 27 27 28 29
31 28 29 29 27 25 24 23 20 20 21 21 22 22 23 24 24 26 27 29 30 30 31 32 32 30 30 28 27 24 23 21 20 21 22 22 22 22 22 23 23 24 24 24 25 26 27 27 28
23 20 18 18 20 19 19 18 17 17 17 17 18 19 19 22 22 23 24 26 27 28 28 26 26 24 23 21 20 19 18 18 19 19 21 21 22 23 23 24 24 24 24 24 25 25 26 26 27
19 15 12 11 12 13 14 13 13 14 14 13 13 14 15 17 19 20 21 23 24 24 23 22 21 19 17 16 15 15 15 16 18 20 21 22 23 24 24 23 24 24 24 24 24 24 24 25 25
18 13 8 5 5 8 9 8 8 8 8 9 9 10 11 12 14 14 15 16 17 18 16 15 15 14 12 12 12 13 15 17 19 21 22 23 23 24 24 24 23 23 24 24 23 23 23 23 23

GEFSSGP_500_meanwind_048.txt.gz
Wind_Speed
4 4 5 6 6 7 6 6 6 7 7 7 6 6 5 5 5 5 5 6 7 7 8 10 11 12 13 13 13 12 12 11 11 10 9 8 6 5 4 4 3 4 5 7 8 9 10 11 12
4 3 4 5 7 7 6 6 6 7 8 8 8 8 7 7 7 6 6 6 7 7 8 9 10 11 12 12 12 12 12 12 11 10 10 8 7 6 5 4 3 3 4 5 8 9 10 11 13
4 3 4 5 6 5 5 5 6 7 8 8 9 9 9 8 8 7 6 6 7 7 7 8 9 10 11 12 12 12 12 12 11 10 10 9 8 7 5 4 3 2 3 4 6 8 10 12 13
4 3 3 4 4 4 5 5 5 6 7 9 10 10 10 9 9 8 7 6 6 6 6 7 8 9 10 10 11 11 11 11 11 11 10 9 9 7 6 4 3 2 2 3 5 7 9 11 13
4 4 4 3 3 3 4 4 5 5 7 9 10 10 10 10 9 8 7 6 6 6 6 6 6 7 8 8 9 9 10 10 10 10 10 9 8 8 7 5 4 2 2 2 3 4 7 9 11
4 3 4 3 2 2 3 3 4 5 6 7 9 9 9 9 9 8 8 7 6 5 5 4 4 5 5 6 7 7 8 8 9 9 9 8 8 7 7 5 4 3 2 1 1 2 4 7 9
5 4 4 4 3 2 1 2 3 4 5 6 7 8 8 8 8 8 7 7 5 4 3 3 2 2 3 4 4 5 6 6 6 7 7 7 7 6 6 6 4 3 2 1 1 1 2 4 7
5 5 5 5 5 4 2 1 1 2 3 5 5 6 6 6 6 7 6 6 4 3 2 1 1 1 2 3 3 4 4 5 5 5 5 6 5 5 5 5 4 3 2 1 1 1 2 3 5
7 7 7 7 7 6 5 3 2 1 2 3 3 4 4 5 5 5 4 4 3 2 2 2 2 3 3 4 4 4 5 5 5 4 4 4 4 4 4 3 3 2 1 1 1 0 1 3 5
10 9 9 8 8 7 7 6 5 4 4 4 5 4 4 4 4 4 4 4 4 4 4 4 5 5 5 6 6 6 6 6 6 5 4 4 3 3 2 2 2 2 1 1 0 1 2 3 5
12 11 11 10 10 9 9 9 9 8 8 8 8 8 8 7 6 5 5 5 5 5 6 6 7 7 7 8 8 8 8 7 7 7 6 5 4 4 3 3 2 1 1 1 1 1 2 4 5
14 13 13 13 13 12 13 13 13 13 12 11 11 11 12 11 10 9 9 9 8 8 8 8 9 9 9 10 10 10 9 9 9 9 9 8 7 6 6 5 4 3 3 3 2 2 3 4 6
15 15 16 16 16 16 16 17 17 16 15 15 14 15 15 15 14 14 13 13 12 12 12 12 12 12 12 12 12 12 12 11 11 11 11 10 10 9 8 8 7 6 5 5 4 4 4 5 6
17 18 19 19 20 20 20 21 22 20 19 19 19 18 18 18 18 18 18 17 16 16 15 15 15 15 15 15 15 14 14 14 14 14 13 13 12 12 11 10 10 9 8 7 7 6 6 6 7
19 20 22 23 24 24 25 26 26 25 24 24 23 23 22 22 22 21 21 21 20 20 19 19 18 18 18 18 17 17 16 17 16 16 16 16 15 15 14 13 12 12 11 10 9 9 8 8 8
22 24 25 26 27 28 29 31 30 29 29 28 28 27 26 26 26 25 25 25 24 23 22 22 21 21 20 20 19 19 19 18 18 18 18 18 18 17 16 16 15 14 14 13 12 10 10 9 9
26 27 29 30 32 32 33 35 34 34 33 32 31 30 30 29 28 28 28 28 27 27 26 24 24 24 23 22 21 22 21 20 20 19 20 20 20 19 18 18 17 16 17 16 15 13 12 11 11
29 30 32 34 36 36 37 38 39 38 37 36 35 34 33 32 31 31 31 30 30 30 29 27 27 26 26 25 25 24 23 23 23 22 21 21 21 21 20 20 20 20 19 18 17 16 14 14 13
32 34 35 37 38 39 40 41 41 41 41 40 39 38 36 35 34 34 33 33 33 32 31 30 29 29 28 28 27 27 26 26 26 25 24 23 22 21 21 21 21 21 20 19 18 18 17 16 15
33 35 37 39 40 40 41 42 43 42 42 42 41 40 39 37 37 36 35 34 34 34 34 34 33 33 32 32 31 30 30 29 30 30 27 25 24 24 23 23 22 22 21 20 20 19 19 19 18
33 36 38 39 41 41 42 43 43 43 43 43 42 41 40 38 37 37 36 36 36 35 36 37 36 37 36 35 35 34 34 35 35 32 29 28 25 24 24 24 23 23 22 21 20 19 20 20 20
34 36 38 40 41 42 42 41 43 41 40 40 39 39 38 37 36 36 36 36 36 36 36 38 39 39 39 38 38 39 39 39 39 36 32 30 28 26 25 24 24 24 23 22 21 21 22 22 21
32 34 35 37 39 40 41 41 39 40 38 37 36 35 35 34 32 32 33 34 35 36 37 38 39 40 41 40 40 41 41 42 41 39 34 32 32 29 26 25 25 24 24 23 22 22 22 22 22
29 32 34 34 34 35 33 33 34 35 33 32 32 32 32 31 31 31 32 32 34 35 36 37 39 41 41 41 42 42 43 43 42 41 39 34 32 29 27 25 25 24 24 24 23 22 22 22 22
31 32 32 30 28 26 24 24 27 27 27 27 27 28 28 28 28 28 29 31 32 34 35 36 37 40 40 40 42 43 44 44 42 40 36 32 29 27 26 24 23 23 23 23 23 23 22 23 23
30 29 26 23 19 18 18 18 20 20 21 22 24 24 24 25 26 27 27 28 29 31 32 33 34 35 37 39 39 40 41 40 40 38 33 29 27 25 24 22 21 20 21 21 21 22 22 22 23
28 24 20 16 13 11 11 12 14 14 15 17 18 20 22 22 23 24 24 24 25 27 27 28 29 31 32 34 34 34 33 32 33 32 28 25 23 22 21 20 19 19 19 20 21 22 22 23 23
24 21 18 13 9 6 5 6 7 7 8 9 13 15 17 19 20 20 20 20 21 23 24 25 25 26 29 31 30 29 28 28 28 24 21 21 20 19 18 17 18 18 19 21 22 22 23 23 24
23 21 18 13 10 6 3 4 4 5 5 6 8 9 11 12 14 15 15 16 17 18 21 21 22 22 23 25 25 24 23 22 20 19 18 17 15 14 13 14 16 18 19 21 22 23 23 23 23
22 21 18 14 12 9 7 7 5 5 6 6 4 4 4 7 8 9 10 11 12 13 14 15 15 16 17 17 16 15 14 13 12 12 12 11 11 11 13 14 16 18 20 21 22 22 23 23 23